This demonstration page uses our WeatherBlox Daily Observations layout. Learn more.

Left ArrowRight Arrow

Hourly Observations for June 9, 2017

Temp ( °F °C ) Dew Point ( °F °C ) Humidity (%) Winds ( mph kmh ) Pressure ( in mb ) Visibility ( mi km ) Precip ( " mm )
12:56 am 00:56 Clear 67 19.3 51 10.6 57 57 S 5 7 29.83 1010 10 16 0.00 0.00
1:56 am 01:56 Clear 68 20.2 53 11.4 57 57 SE 3 6 29.83 1010 10 16 0.00 0.00
2:56 am 02:56 Clear 67 19.5 53 11.8 61 61 SSE 3 6 29.80 1009 10 16 0.00 0.00
3:56 am 03:56 Clear 60 15.5 53 11.9 79 79 SSE 3 6 29.81 1010 10 16 0.00 0.00
4:56 am 04:56 Clear 56 13.6 53 11.8 89 89 Calm 29.80 1009 10 16 0.00 0.00
5:56 am 05:56 Sunny 56 13.3 53 11.7 90 90 ESE 3 6 29.81 1010 10 16 0.00 0.00
6:56 am 06:56 Sunny 60 15.7 55 12.8 83 83 SSE 3 6 29.83 1010 10 16 0.00 0.00
7:56 am 07:56 Sunny 68 20.2 57 13.9 67 67 SSE 3 6 29.84 1010 10 16 0.00 0.00
8:56 am 08:56 Sunny 74 23.2 59 15.2 61 61 SSW 5 7 29.85 1011 10 16 0.00 0.00
9:56 am 09:56 Sunny 79 25.9 59 15 51 51 SW 9 15 29.85 1011 10 16 0.00 0.00
10:56 am 10:56 Sunny 82 27.8 57 13.7 42 42 SSW 8 13 29.83 1010 10 16 0.00 0.00
11:56 am 11:56 Sunny 85 29.4 55 12.7 36 36 S 12 19 29.82 1010 10 16 0.00 0.00
12:56 pm 12:56 Sunny 87 30.4 53 11.8 32 32 S 10 17 29.80 1009 10 16 0.00 0.00
1:22 pm 13:22 Sunny 88 31 54 12 31 31 SW 14 22 29.79 1009 10 16 0.00 0.00
1:56 pm 13:56 Mostly Sunny 88 31.2 51 10.5 28 28 S 12 19 29.78 1008 10 16 0.00 0.00
2:56 pm 14:56 Sunny 89 31.8 51 10.5 27 27 S 14 22 29.75 1008 10 16 0.00 0.00
3:56 pm 15:56 Sunny 89 31.9 53 11.6 29 29 S 13 20 29.74 1007 10 16 0.00 0.00
4:56 pm 16:56 Sunny 90 32.2 54 12.4 30 30 S 13 20 29.72 1006 10 16 0.00 0.00
5:56 pm 17:56 Sunny 89 31.9 55 12.6 31 31 S 15 24 29.70 1006 10 16 0.00 0.00
6:56 pm 18:56 Sunny 88 31.1 55 12.9 33 33 S 14 22 29.69 1005 10 16 0.00 0.00
7:56 pm 19:56 Sunny 85 29.7 57 13.8 38 38 S 14 22 29.68 1005 10 16 0.00 0.00
8:56 pm 20:56 Clear 82 27.5 59 14.8 46 46 SSE 12 19 29.68 1005 10 16 0.00 0.00
9:56 pm 21:56 Clear 80 26.6 59 15 49 49 SSE 14 22 29.68 1005 10 16 0.00 0.00
10:56 pm 22:56 Clear 78 25.7 60 15.4 53 53 SSE 14 22 29.69 1006 10 16 0.00 0.00
11:56 pm 23:56 Clear 77 25.1 60 15.7 56 56 S 16 26 29.68 1005 10 16 0.00 0.00

Powered by AerisWeather